Wind_Speed
7 7 7 7 6 4 2 2 2 1 1 2 3 4 5 6 7 7 6 5 4 2 2 2 3 3 3 4 4 4 5 6 7 8 9 10 11 12 13 13 14 14
8 8 8 9 9 8 7 6 5 3 2 1 0 1 3 4 5 6 6 6 5 4 3 3 3 3 4 4 5 5 5 5 6 6 7 8 9 10 11 12 13 14
11 11 11 12 12 12 11 10 8 7 5 4 3 3 3 4 5 5 6 6 6 5 4 4 4 4 5 5 6 6 7 7 7 7 7 8 8 9 9 10 11 12
14 14 14 14 15 15 14 13 12 11 9 8 7 5 5 5 6 6 6 6 6 6 5 5 5 5 5 5 5 6 7 8 8 9 9 10 10 10 10 10 11 11
16 15 14 14 16 17 17 16 15 15 13 13 12 10 8 7 8 8 8 8 6 5 5 5 6 6 6 6 6 6 7 8 9 9 10 11 11 11 12 12 12 12
19 17 16 16 18 19 19 18 18 17 17 17 17 15 13 11 10 10 10 10 8 7 6 6 6 6 6 6 6 7 7 8 8 9 10 11 11 12 12 13 13 13
23 21 20 18 18 18 19 20 21 20 20 20 20 20 19 16 15 14 13 12 11 10 9 9 8 8 7 6 6 7 8 9 9 9 10 11 12 12 13 14 15 15
27 27 25 23 21 20 20 21 21 22 22 22 23 23 23 23 21 19 18 17 15 13 12 12 11 11 11 10 9 9 11 12 12 12 11 12 12 13 14 15 16 17
30 30 29 28 27 26 25 23 22 22 23 24 25 26 26 27 26 24 23 22 20 18 16 15 15 15 14 14 13 13 14 15 15 15 15 15 14 15 15 16 17 17
29 28 27 28 29 28 28 27 25 24 23 24 27 28 29 30 30 29 28 27 26 23 21 19 19 18 18 18 17 17 18 18 18 18 18 18 18 18 19 19 19 19
26 24 23 24 26 28 28 28 27 27 26 26 27 29 30 32 33 33 32 32 30 29 27 25 23 22 22 22 22 22 22 22 22 21 21 21 21 21 22 22 22 22
22 23 22 23 25 27 26 26 27 28 29 29 30 30 31 33 34 36 36 36 34 33 32 30 28 27 26 25 25 26 27 27 27 26 26 26 26 26 26 26 26 26
20 22 24 25 26 27 24 22 24 26 29 32 33 33 33 34 35 37 39 39 38 36 35 33 32 31 30 29 29 29 30 31 31 31 31 32 32 32 33 33 32 31
21 22 25 27 27 26 25 23 24 26 29 33 36 37 37 36 38 39 39 40 40 39 38 37 36 36 35 34 33 33 34 34 35 35 36 37 37 37 37 37 36 35
24 25 28 30 29 29 28 28 28 28 30 32 35 38 40 41 41 41 40 41 42 42 41 39 39 39 39 38 37 37 37 37 37 38 39 39 40 40 39 38 38 37
26 28 30 32 32 32 32 32 32 32 32 33 34 37 41 43 44 44 44 43 43 43 43 42 41 41 39 37 37 38 38 38 38 39 39 40 41 41 40 40 41 40
29 30 31 33 34 34 34 35 35 35 35 35 36 37 39 42 45 47 47 45 43 42 44 44 44 43 39 36 36 36 37 38 38 38 39 41 41 41 41 42 43 42
30 31 32 33 34 34 35 36 36 37 37 37 38 38 38 40 43 47 48 48 45 44 47 47 45 43 39 35 34 36 37 38 38 37 39 40 39 40 43 45 43 42
29 31 32 33 33 33 34 36 37 37 37 38 39 39 39 39 40 42 44 45 43 44 46 45 42 40 36 34 35 39 40 38 37 37 38 38 38 40 44 44 42 41
27 28 30 31 32 33 33 35 36 37 37 38 39 39 39 39 39 39 39 39 38 37 38 39 39 38 37 37 40 42 41 38 36 35 36 37 39 41 42 42 41 40
27 27 28 28 29 30 31 33 35 36 37 38 38 37 38 39 39 38 37 36 34 33 33 34 35 38 39 41 42 41 38 35 34 35 36 38 40 40 40 40 40 39
28 29 29 29 29 29 30 31 32 34 35 37 38 37 37 37 38 37 36 34 32 30 31 32 33 37 40 41 40 38 34 33 35 36 37 38 40 40 39 39 39 39
30 31 31 32 31 32 32 31 31 33 34 36 38 38 37 36 35 34 34 32 29 28 30 32 35 38 39 39 38 36 34 35 37 37 38 38 38 38 38 38 39 39
30 31 32 33 33 34 34 34 33 34 35 36 37 37 37 36 34 33 33 31 29 29 31 34 38 40 40 39 37 36 36 37 37 37 37 36 36 37 38 39 39 40
30 32 33 34 35 35 36 36 35 36 36 37 37 36 36 35 34 32 32 31 31 32 34 36 39 40 39 37 36 36 36 36 35 35 35 35 36 38 39 40 41 42
33 33 34 35 36 36 36 37 37 37 38 38 37 34 33 33 33 31 31 32 33 34 37 39 38 37 36 35 34 34 33 32 32 33 35 36 37 39 41 42 42 42
Wind_Direction
262 285 305 317 316 306 278 233 207 189 70 56 50 35 28 27 27 26 28 32 34 22 346 316 299 296 298 299 298 295 290 284 282 279 277 275 274 272 271 269 267 264
252 270 285 299 306 303 287 265 247 241 244 246 332 355 357 3 11 16 21 29 38 40 30 10 355 348 346 346 345 341 334 325 314 301 293 286 281 279 277 275 273 272
250 266 277 284 289 289 281 271 260 253 254 259 268 286 308 325 337 350 1 12 25 35 35 28 18 9 6 3 0 354 346 340 334 326 319 310 301 294 289 286 283 278
251 260 268 274 278 278 273 269 265 261 260 262 265 272 282 295 308 319 331 343 2 19 21 21 22 18 13 8 359 351 343 338 333 329 326 322 318 312 306 300 296 290
246 251 254 261 266 266 265 266 267 266 265 264 264 266 267 273 286 297 306 315 328 346 357 2 8 13 15 12 5 355 345 336 329 324 321 319 318 316 311 307 302 298
237 240 243 251 257 258 258 260 263 266 265 266 267 268 267 266 270 279 288 296 304 313 323 329 336 347 358 3 4 1 353 342 331 323 317 313 310 307 304 302 298 294
228 231 237 244 249 252 254 254 256 260 264 267 269 270 271 269 267 269 274 280 287 294 299 304 310 315 322 332 339 342 339 333 329 326 322 316 310 303 298 295 292 289
222 226 231 233 236 243 251 253 252 254 259 263 267 270 272 272 270 269 269 272 275 280 286 290 295 299 303 307 314 319 320 317 317 318 319 317 314 309 303 296 292 288
222 226 230 230 231 236 242 247 250 253 256 259 263 266 269 271 272 271 270 270 271 273 277 281 285 289 292 295 299 303 306 307 307 308 309 310 309 308 305 301 295 290
228 232 236 236 235 236 237 240 244 248 251 255 259 262 265 268 270 271 271 270 270 271 272 274 278 282 285 288 291 293 294 296 298 299 301 303 303 303 302 301 299 295
230 234 239 243 244 242 240 241 243 244 246 249 252 258 262 264 267 268 269 269 269 269 269 270 273 276 280 283 286 288 290 291 292 294 297 299 300 299 299 298 298 297
233 236 244 254 257 255 251 248 248 249 249 249 249 251 255 260 263 266 267 267 267 266 266 268 271 274 277 279 281 285 287 288 290 292 294 296 296 297 297 297 297 296
238 241 248 254 260 264 261 254 251 253 255 254 250 248 249 253 257 260 263 264 264 265 266 267 269 272 274 276 279 282 284 285 287 290 291 293 293 294 295 297 297 296
248 251 256 257 259 261 261 258 255 255 257 255 252 250 249 249 252 257 259 260 262 264 265 266 268 270 272 275 278 281 283 283 285 288 289 290 290 291 292 294 295 295
250 252 255 258 259 258 259 259 257 255 255 254 254 253 252 252 256 260 259 258 261 262 262 263 265 266 269 272 276 280 282 283 285 287 289 289 289 289 290 292 292 292
249 249 250 253 254 255 256 257 257 256 255 255 255 255 255 256 259 259 254 254 258 261 263 263 263 264 265 268 273 277 280 283 286 288 288 288 288 287 288 289 289 289
255 255 255 255 256 256 256 256 256 257 256 256 255 256 257 258 258 255 252 253 256 260 263 264 263 264 265 267 269 273 278 282 285 286 287 287 286 285 285 287 287 285
260 260 259 259 260 260 260 259 258 257 257 256 255 255 256 257 257 255 254 256 258 261 263 263 262 263 265 265 266 270 277 282 284 284 285 285 284 283 283 286 287 283
261 261 261 261 261 261 261 261 261 260 259 258 256 255 255 256 257 258 258 259 260 261 264 264 263 263 263 263 267 273 279 282 282 282 281 281 282 282 284 287 288 285
261 261 261 261 261 261 260 260 261 261 261 260 259 257 256 258 259 261 261 262 262 261 262 264 264 263 263 266 270 275 280 280 279 279 279 280 282 283 285 287 288 287
262 263 263 263 263 263 262 260 260 259 260 261 261 260 260 260 261 263 264 264 262 260 260 262 263 263 264 267 271 274 276 276 276 277 279 280 282 284 287 289 289 289
266 267 267 267 267 267 266 265 263 261 259 259 259 260 261 262 262 264 265 265 263 261 260 260 260 260 263 267 271 273 273 273 274 276 278 280 282 286 289 289 288 288
269 270 271 271 271 271 271 269 267 266 263 261 259 259 260 262 263 264 264 263 261 257 255 255 256 257 261 266 270 270 269 272 275 277 278 280 283 287 289 288 287 287
273 272 272 272 271 271 271 270 268 267 265 263 261 259 259 259 261 262 262 261 257 252 251 252 253 254 257 261 263 264 267 272 275 278 281 283 286 287 287 287 287 287
278 277 275 273 272 271 270 269 267 265 264 263 264 263 260 259 259 259 259 257 253 250 250 253 256 257 257 256 257 262 269 274 277 281 284 286 286 287 287 287 288 287
282 280 277 274 272 270 268 267 265 263 261 262 264 264 263 261 259 257 255 252 249 249 250 252 256 260 256 253 258 267 274 278 281 283 284 285 286 286 287 287 288 288
Height
3124 3124 3125 3125 3125 3125 3124 3124 3123 3122 3122 3121 3121 3121 3121 3121 3122 3122 3122 3122 3123 3123 3123 3123 3123 3123 3123 3123 3123 3123 3123 3123 3123 3124 3124 3124 3124 3124 3124 3124 3125 3125
3123 3123 3124 3124 3124 3124 3124 3124 3123 3123 3122 3121 3121 3121 3121 3121 3121 3121 3122 3122 3122 3122 3122 3122 3122 3122 3122 3122 3122 3122 3122 3122 3122 3122 3122 3122 3122 3122 3122 3122 3122 3123
3122 3122 3123 3123 3123 3123 3123 3123 3123 3123 3122 3121 3121 3121 3121 3121 3121 3121 3121 3121 3121 3121 3121 3121 3121 3121 3121 3121 3121 3121 3121 3121 3121 3121 3120 3120 3120 3120 3120 3120 3120 3120
3120 3121 3121 3122 3122 3122 3122 3122 3122 3122 3122 3121 3120 3120 3120 3120 3120 3120 3120 3121 3121 3121 3121 3121 3120 3120 3120 3121 3121 3120 3120 3120 3119 3119 3119 3119 3118 3118 3118 3118 3118 3117
3118 3119 3119 3120 3120 3120 3120 3121 3121 3121 3121 3120 3120 3119 3119 3119 3119 3119 3119 3120 3120 3120 3120 3120 3119 3119 3119 3120 3120 3120 3119 3119 3119 3118 3118 3117 3117 3117 3116 3116 3116 3116
3116 3117 3117 3118 3118 3118 3119 3119 3119 3119 3119 3119 3119 3118 3118 3118 3118 3118 3118 3118 3119 3119 3119 3119 3118 3118 3118 3118 3118 3118 3118 3118 3118 3117 3117 3117 3116 3116 3115 3115 3115 3115
3113 3114 3115 3116 3116 3117 3117 3117 3117 3117 3118 3117 3117 3117 3117 3117 3117 3117 3117 3117 3117 3118 3118 3118 3117 3117 3117 3117 3117 3117 3116 3116 3116 3116 3116 3115 3115 3114 3114 3114 3113 3113
3109 3110 3111 3112 3113 3114 3115 3115 3115 3115 3116 3116 3115 3115 3115 3115 3115 3115 3115 3115 3116 3116 3116 3116 3116 3116 3116 3116 3116 3115 3115 3115 3114 3115 3114 3114 3113 3113 3112 3112 3111 3111
3105 3106 3107 3109 3110 3111 3112 3112 3113 3113 3113 3113 3113 3113 3112 3112 3112 3112 3113 3113 3114 3114 3115 3115 3115 3115 3115 3115 3114 3114 3114 3113 3113 3113 3113 3112 3112 3111 3111 3110 3110 3109
3103 3104 3105 3106 3107 3107 3108 3109 3110 3110 3111 3111 3111 3110 3110 3109 3109 3109 3110 3110 3111 3111 3112 3113 3113 3113 3113 3113 3113 3112 3112 3111 3111 3110 3110 3110 3110 3110 3109 3109 3108 3107
3100 3101 3102 3103 3103 3104 3104 3105 3106 3107 3107 3108 3108 3107 3107 3107 3106 3106 3106 3106 3107 3108 3109 3110 3110 3111 3111 3111 3110 3110 3110 3109 3109 3108 3108 3107 3107 3107 3107 3106 3106 3105
3096 3097 3098 3099 3100 3100 3101 3102 3102 3103 3104 3104 3104 3104 3104 3104 3103 3102 3102 3102 3103 3104 3105 3106 3108 3108 3108 3108 3108 3108 3107 3107 3106 3106 3105 3105 3104 3104 3103 3103 3103 3103
3091 3093 3095 3096 3096 3096 3097 3098 3099 3100 3100 3100 3101 3101 3100 3101 3100 3099 3099 3099 3099 3100 3102 3103 3104 3104 3104 3104 3104 3104 3104 3104 3104 3103 3103 3102 3101 3101 3100 3100 3099 3099
3089 3091 3092 3093 3093 3093 3094 3095 3095 3096 3096 3097 3097 3097 3097 3096 3096 3096 3096 3096 3096 3096 3098 3099 3100 3100 3100 3101 3101 3100 3101 3100 3100 3100 3099 3098 3098 3097 3097 3096 3096 3095
3087 3088 3089 3090 3090 3090 3091 3091 3091 3092 3092 3093 3093 3093 3093 3092 3091 3091 3092 3092 3092 3092 3093 3094 3095 3096 3096 3096 3097 3096 3096 3096 3096 3095 3095 3094 3094 3093 3093 3093 3092 3092
3083 3084 3085 3086 3086 3087 3087 3087 3087 3088 3088 3088 3089 3088 3088 3087 3087 3087 3087 3087 3087 3087 3088 3089 3090 3090 3090 3091 3092 3092 3092 3092 3091 3091 3090 3090 3089 3089 3088 3088 3087 3087
3079 3079 3080 3081 3081 3082 3082 3083 3083 3083 3083 3084 3084 3084 3083 3083 3084 3084 3082 3081 3082 3084 3084 3084 3084 3085 3086 3087 3088 3088 3088 3087 3087 3086 3086 3085 3084 3084 3083 3082 3082 3082
3074 3074 3075 3075 3076 3077 3077 3077 3078 3078 3078 3079 3079 3079 3079 3079 3079 3079 3079 3078 3079 3080 3079 3078 3079 3081 3082 3083 3084 3084 3083 3083 3083 3082 3081 3080 3079 3079 3078 3077 3076 3076
3069 3070 3070 3070 3071 3072 3072 3072 3072 3073 3073 3073 3074 3074 3074 3074 3074 3075 3075 3075 3076 3076 3074 3074 3076 3078 3079 3079 3079 3079 3079 3079 3078 3077 3076 3075 3075 3074 3072 3071 3071 3070
3065 3065 3065 3065 3066 3067 3067 3067 3067 3067 3068 3068 3068 3069 3069 3069 3070 3070 3071 3071 3072 3072 3071 3072 3073 3075 3075 3075 3075 3074 3074 3074 3073 3072 3072 3070 3069 3068 3067 3066 3066 3065
3060 3060 3061 3061 3062 3062 3062 3063 3063 3063 3063 3063 3063 3064 3064 3065 3065 3065 3066 3066 3067 3068 3068 3068 3070 3070 3070 3070 3070 3069 3069 3069 3068 3067 3067 3065 3064 3064 3063 3062 3061 3060
3056 3056 3056 3057 3057 3057 3058 3058 3058 3058 3059 3059 3059 3059 3059 3060 3060 3061 3061 3062 3063 3063 3063 3064 3065 3065 3065 3065 3065 3064 3064 3064 3063 3062 3061 3061 3060 3059 3058 3057 3056 3055
3053 3053 3052 3053 3053 3053 3053 3053 3054 3054 3054 3054 3054 3054 3055 3055 3056 3057 3057 3057 3058 3058 3059 3060 3060 3060 3060 3060 3060 3060 3060 3059 3059 3057 3056 3056 3055 3054 3053 3052 3051 3050
3048 3048 3048 3048 3049 3049 3048 3048 3049 3049 3049 3049 3049 3050 3050 3051 3051 3052 3052 3053 3053 3054 3054 3055 3055 3055 3055 3056 3056 3056 3055 3055 3054 3053 3052 3051 3050 3049 3048 3047 3046 3045
3044 3044 3044 3044 3044 3044 3044 3044 3044 3044 3043 3043 3044 3045 3045 3046 3047 3047 3048 3048 3049 3050 3050 3050 3050 3050 3051 3051 3051 3051 3051 3050 3049 3048 3047 3046 3045 3044 3043 3042 3041 3040
3039 3039 3039 3038 3038 3039 3039 3038 3038 3039 3039 3039 3039 3040 3041 3041 3042 3043 3044 3044 3045 3045 3045 3045 3045 3046 3047 3047 3047 3047 3046 3046 3045 3044 3043 3042 3041 3039 3038 3037 3036 3034